Regional Weather Roundup
Issued by NWS

Current Version | Previous Version | Text Only | Print | Product List | Glossary On
Versions: 1 2 3 4 5 6 7 8 9 10 11 12 13 14 15 16 17 18 19 20 21 22 23 24 25 26 27 28 29 30 31 32 33 34 35 36 37 38 39 40 41 42 43 44 45 46 47 48 49 50
000
ASUS44 KOUN 241210
RWROK

WEATHER ROUNDUP FOR OKLAHOMA
NATIONAL WEATHER SERVICE NORMAN OK
600 AM CST TUE JAN 24 2017

NOTE: "FAIR" INDICATES FEW OR NO CLOUDS BELOW 12,000 FEET WITH NO
      SIGNIFICANT WEATHER AND/OR OBSTRUCTIONS TO VISIBILITY.

OKZ001>007-009>012-014-015-017-241300-
NORTHWEST OKLAHOMA AND THE PANHANDLE

CITY           SKY/WX    TMP DP  RH WIND       PRES   REMARKS
GAGE           CLEAR     47  32  56 S13       29.47F
6HR MIN TEMP:  38; 6HR MAX TEMP:  49;

GUYMON         CLEAR     41  30  65 SW16      29.47R
ENID/WOODRING  CLEAR     36  36 100 S7        29.54S WCI  30
$$

OKZ016-021>023-033>039-044-045-241300-
SOUTHWEST OKLAHOMA

CITY           SKY/WX    TMP DP  RH WIND       PRES   REMARKS
LAWTON/REGL    CLOUDY    34  32  92 CALM      29.60F
6HR MIN TEMP:  33; 6HR MAX TEMP:  47;

LAWTON/FT SILL PTCLDY    39  38  94 S5        29.58F
FREDERICK      MOCLDY    42  37  82 E8        29.55S
CLINTON        CLEAR     49  34  56 S15       29.54F
HOBART         CLEAR     47  37  68 S16       29.55F
ALTUS AFB      CLOUDY    39  33  81 E7        29.55F WCI  34
$$

OKZ018>020-024>031-241300-
CENTRAL OKLAHOMA

CITY           SKY/WX    TMP DP  RH WIND       PRES   REMARKS
OKLAHOMA CITY  CLOUDY    42  36  79 S10       29.58F
6HR MIN TEMP:  42; 6HR MAX TEMP:  47;

OKC/WILEY POST CLEAR     46  38  73 S18       29.56F
OKC/TINKER AFB CLOUDY    45  36  71 S13       29.58F
STILLWATER     CLEAR     46  34  62 S9        29.58F
GUTHRIE        PTCLDY    50  37  61 S10       29.57S
$$

OKZ008-013-054>072-241300-
NORTHEAST OKLAHOMA

CITY           SKY/WX    TMP DP  RH WIND       PRES   REMARKS
TULSA          PTCLDY    47  34  60 S13       29.63F
6HR MIN TEMP:  42; 6HR MAX TEMP:  48;

TULSA/JONES    PTCLDY    44  32  62 S6        29.63F
PONCA CITY     CLEAR     47  34  60 S16       29.55F
BARTLESVILLE   CLEAR     42  33  70 S8        29.63F
MUSKOGEE       MOCLDY    45  35  68 SE13      29.67F
$$

OKZ032-040>043-046>053-073>077-241300-
SOUTH CENTRAL/SOUTHEAST OKLAHOMA

CITY           SKY/WX    TMP DP  RH WIND       PRES   REMARKS
ARDMORE/DWNTWN CLEAR     43  36  75 CALM      29.64S
MCALESTER      PTCLDY    54  33  45 SE6       29.67S
$$





USA.gov is the U.S. government's official web portal to all federal, state and local government web resources and services.